Weather in Ishtymbal

Russia / Mari El Republic     56°47′30″N   48°49′16″E
temp.,
°C
wind,
m/s
gust,
m/s
humid.,
%
clouds,
%
prec.,
mm/h
press.,
hPa
HPBL,
m
25 february, thu
thu2500:00−25wsw119899 0.0 103420
03:00−26ssw239877 0.0 103321
06:00−24s379895 0.0 1030161
09:00−21sse5109598 0.0 1027263
12:00−18sse71194100 0.1 1023393
15:00−17sse71295100 0.8 1021514
18:00−17sse61195100 0.9 1019571
21:00−17sse5109599 1.1 1018447
26 february, fri
fri2600:00−18se5109599 0.1 1017415
03:00−18se499596 0.2 1018386
06:00−20se499795 0.1 1016246
09:00−18se599598 0.1 1017331
12:00−16se6993100 0.0 1015412
15:00−15se71293100 0.1 1013439
18:00−15se81592100 0.1 1008510
21:00−13se91694100 1.3 1004515
27 february, sat
sat2700:00−13se81494100 4.9 1000555
03:00−13se61194100 6.0 999397
06:00−13ese51094100 0.4 997291
09:00−12ese5993100 0.8 998311
12:00−9e689295 0.2 998393
15:00−10ene699397 0.3 1000399
18:00−12ene5109493 0.2 1001339
21:00−13ne499594 0.3 1003234
28 february, sun
sun2800:00−13nne599489 0.1 1004291
03:00−15nne599592 0.3 1006271
06:00−16nne5995100 0.3 1007325
09:00−16nne5994100 0.4 1009352
12:00−15n5793100 0.0 1011339
15:00−14n5992100 0.1 1012452
18:00−18n4897100 0.0 1014160
21:00−21n479989 0.1 1017112
1 march, mon
mon100:00−22n34980 0.0 101870
03:00−23n47990 0.0 102097
06:00−24n34980 0.0 102174
09:00−19n35960 0.0 1022145
12:00−15nw238942 0.0 1023240
15:00−13wnw359142 0.0 1022280
18:00−15wsw349741 0.0 102078
21:00−14sw5109867 0.0 1019215